User: anonymous   Login
Location: Columbus
(29.5618°N, 96.6770°W)
Time: 21:55:28
(UTC-05:00)
Language:

Iridium 59 - Orbit

View from above orbital plane
View from above orbital plane
View from above satellite
View from above satellite

Ground track
Ground track

The orbit data is extracted from the following two-line orbital elements,

1 25275U 98019D   16150.37952305  .00000208  00000-0  67052-4 0  9999
2 25275  86.3970  87.8352 0002123  84.9478 275.1960 14.34218909951058
Epoch (UTC): 29 May 2016 09:06:30
Eccentricity: 0.0002123
inclination: 86.3970°
perigee height: 776 km
apogee height: 779 km
right ascension of ascending node: 87.8352°
argument of perigee: 84.9478°
revolutions per day: 14.34218909
mean anomaly at epoch: 275.1960°
orbit number at epoch: 95105

The dashed part of the orbit path shows where the satellite is in the earth's shadow,  

DLR